Location: Moorefield
(40.6897°N, 100.3996°W)
Time: 04:57:26
(UTC+00:00)

ISS - Pass Details

Date: 03 September 2019
Orbit: 411 x 421 km, 51.6° (Epoch: 18 September)

Event Time Altitude Azimuth Distance (km) Brightness Sun altitude
Exits shadow 11:14:03 - 303° (WNW) 1,771 -0.9 -11.1°
Reaches altitude 10° 11:15:07 10° 316° (NW) 1,490 -1.2 -10.9°
Maximum altitude 11:17:02 14° 350° (N) 1,261 -1.2 -10.6°
Drops below altitude 10° 11:18:56 10° 25° (NNE) 1,495 -0.3 -10.2°
Sets 11:21:48 0° 52° (NE) 2,363 1.6 -9.7°
